Weather History for Pipestone, MN

Change the Weather History Date:

Monday, November 19, 2012

  Actual Average Record
Temperature  
Mean Temperature 45 °F -  
Max Temperature 55 °F 37 °F 62 °F (2003)
Min Temperature 30 °F 21 °F 10 °F (2014)
Degree Days  
Heating Degree Days 20    
Moisture  
Dew Point 36 °F    
Average Humidity 72    
Maximum Humidity 93    
Minimum Humidity 54    
Precipitation  
Precipitation 0.00 in - - ()
Sea Level Pressure  
Sea Level Pressure 30.01 in    
Wind  
Wind Speed 10 mph (NNW)    
Max Wind Speed 16 mph    
Max Gust Speed 20 mph    
Visibility 10 miles    
Events      
Averages and records for this station are not official NWS values.
T = Trace of Precipitation, MM = Missing Value Source: NWS Daily Summary

Daily Weather History Graph

Daily Weather History Graph

Search for Another Location

Airport:

Trip Planner

Search our weather history database for the weather conditions in past years. The results will help you decide how hot, cold, wet, or windy it might be!

Date:

Astronomy

Nov. 19, 2012 Rise Set
Actual Time 7:25 AM CST 4:55 PM CST
Civil Twilight 6:54 AM CST 5:26 PM CST
Nautical Twilight 6:19 AM CST 6:01 PM CST
Astronomical Twilight 5:44 AM CST 6:36 PM CST
Moon 12:24 PM CST (11/19) 11:29 PM CST (11/19)
Length of Visible Light 10h 32m
Length of Day
9h 29m
Waxing Crescent, 41% of the Moon is Illuminated
Nov 19
Waxing Crescent
Nov 20
First Quarter
Nov 28
Full
Dec 6
Last Quarter
Dec 13
New

Hourly Weather History & Observations

Time (CST) Temp. Windchill Dew Point Humidity Pressure Visibility Wind Dir Wind Speed Gust Speed Precip Events Conditions
12:13 AM 44.6 °F 38.1 °F 33.8 °F 66% 29.98 in 10.0 mi South 13.8 mph - N/A   Clear
12:33 AM 44.6 °F 38.1 °F 33.8 °F 66% 29.97 in 10.0 mi South 13.8 mph - N/A   Clear
12:53 AM 44.6 °F 37.8 °F 35.6 °F 71% 29.96 in 10.0 mi South 15.0 mph - N/A   Clear
1:13 AM 44.6 °F 38.1 °F 35.6 °F 71% 29.96 in 10.0 mi South 13.8 mph - N/A   Clear
1:33 AM 44.6 °F 37.8 °F 35.6 °F 71% 29.95 in 10.0 mi South 15.0 mph 19.6 mph N/A   Clear
1:53 AM 44.6 °F 38.1 °F 35.6 °F 71% 29.95 in 10.0 mi South 13.8 mph - N/A   Clear
2:13 AM 44.6 °F 38.4 °F 35.6 °F 71% 29.95 in 10.0 mi South 12.7 mph - N/A   Clear
2:33 AM 42.8 °F 36.2 °F 35.6 °F 76% 29.95 in 10.0 mi South 12.7 mph - N/A   Clear
2:53 AM 42.8 °F 35.8 °F 35.6 °F 76% 29.95 in 10.0 mi South 13.8 mph - N/A   Clear
3:13 AM 42.8 °F 35.1 °F 35.6 °F 76% 29.94 in 10.0 mi South 16.1 mph - N/A   Clear
3:33 AM 42.8 °F 35.4 °F 35.6 °F 76% 29.94 in 10.0 mi South 15.0 mph - N/A   Clear
3:53 AM 42.8 °F 35.8 °F 35.6 °F 76% 29.94 in 10.0 mi South 13.8 mph - N/A   Clear
4:13 AM 42.8 °F 36.2 °F 35.6 °F 76% 29.94 in 10.0 mi South 12.7 mph - N/A   Clear
4:33 AM 42.8 °F 36.2 °F 35.6 °F 76% 29.94 in 10.0 mi South 12.7 mph - N/A   Clear
4:53 AM 42.8 °F 36.6 °F 35.6 °F 76% 29.94 in 10.0 mi South 11.5 mph - N/A   Clear
5:13 AM 42.8 °F 37.0 °F 35.6 °F 76% 29.94 in 10.0 mi South 10.4 mph - N/A   Clear
5:33 AM 41.0 °F 34.7 °F 35.6 °F 81% 29.94 in 10.0 mi South 10.4 mph - N/A   Clear
5:53 AM 41.0 °F 34.3 °F 35.6 °F 81% 29.94 in 10.0 mi South 11.5 mph - N/A   Clear
6:13 AM 39.2 °F 34.2 °F 33.8 °F 81% 29.96 in 10.0 mi South 6.9 mph - N/A   Clear
6:33 AM 39.2 °F 34.2 °F 33.8 °F 81% 29.95 in 10.0 mi SSE 6.9 mph - N/A   Clear
6:53 AM 39.2 °F 33.6 °F 33.8 °F 81% 29.95 in 10.0 mi South 8.1 mph - N/A   Clear
7:13 AM 39.2 °F 32.5 °F 33.8 °F 81% 29.94 in 10.0 mi SSE 10.4 mph - N/A   Clear
7:33 AM 37.4 °F 30.8 °F 33.8 °F 87% 29.95 in 10.0 mi SSW 9.2 mph - N/A   Clear
7:53 AM 35.6 °F 29.9 °F 33.8 °F 93% 29.95 in 10.0 mi SW 6.9 mph - N/A   Clear
8:13 AM 37.4 °F 33.8 °F 33.8 °F 87% 29.96 in 10.0 mi ENE 4.6 mph - N/A   Clear
8:33 AM 39.2 °F 35.9 °F 35.6 °F 87% 29.96 in 10.0 mi SE 4.6 mph - N/A   Clear
8:54 AM 41.0 °F 37.1 °F 35.6 °F 81% 29.96 in 10.0 mi South 5.8 mph - N/A   Clear
9:13 AM 42.8 °F 41.1 °F 35.6 °F 76% 29.98 in 10.0 mi SSW 3.5 mph - N/A   Clear
9:33 AM 44.6 °F 41.4 °F 35.6 °F 71% 29.99 in 10.0 mi SW 5.8 mph - N/A   Clear
9:54 AM 46.4 °F 44.3 °F 35.6 °F 66% 29.99 in 10.0 mi SW 4.6 mph - N/A   Clear
10:13 AM 46.4 °F 44.3 °F 37.4 °F 71% 29.99 in 10.0 mi West 4.6 mph - N/A   Clear
10:33 AM 46.4 °F 45.2 °F 37.4 °F 71% 30.00 in 10.0 mi WNW 3.5 mph - N/A   Clear
10:53 AM 46.4 °F 44.3 °F 37.4 °F 71% 30.00 in 10.0 mi NW 4.6 mph - N/A   Clear
11:13 AM 48.2 °F - 37.4 °F 66% 29.99 in 10.0 mi Calm Calm - N/A   Clear
11:33 AM 48.2 °F - 37.4 °F 66% 29.98 in 10.0 mi NNE 3.5 mph - N/A   Clear
11:54 AM 50.0 °F - 37.4 °F 62% 29.99 in 10.0 mi North 3.5 mph - N/A   Clear
12:13 PM 51.8 °F - 37.4 °F 58% 29.99 in 10.0 mi Calm Calm - N/A   Clear
12:33 PM 51.8 °F - 37.4 °F 58% 29.99 in 10.0 mi NW 5.8 mph - N/A   Clear
12:54 PM 51.8 °F - 37.4 °F 58% 29.99 in 10.0 mi NNW 5.8 mph - N/A   Clear
1:13 PM 53.6 °F - 37.4 °F 54% 30.00 in 10.0 mi NNW 5.8 mph - N/A   Clear
1:33 PM 53.6 °F - 37.4 °F 54% 30.00 in 10.0 mi NNW 6.9 mph - N/A   Clear
1:53 PM 53.6 °F - 37.4 °F 54% 30.00 in 10.0 mi NNW 9.2 mph - N/A   Clear
2:14 PM 53.6 °F - 37.4 °F 54% 30.00 in 10.0 mi NW 9.2 mph - N/A   Clear
2:33 PM 53.6 °F - 37.4 °F 54% 30.01 in 10.0 mi NW 9.2 mph - N/A   Clear
2:53 PM 53.6 °F - 37.4 °F 54% 30.00 in 10.0 mi NNW 6.9 mph - N/A   Clear
3:13 PM 55.4 °F - 39.2 °F 54% 30.01 in 10.0 mi North 6.9 mph - N/A   Clear
3:33 PM 55.4 °F - 39.2 °F 54% 30.01 in 10.0 mi North 5.8 mph - N/A   Clear
3:53 PM 55.4 °F - 39.2 °F 54% 30.02 in 10.0 mi North 6.9 mph - N/A   Clear
4:13 PM 55.4 °F - 39.2 °F 54% 30.02 in 10.0 mi NNE 6.9 mph - N/A   Clear
4:33 PM 53.6 °F - 39.2 °F 58% 30.03 in 10.0 mi NNE 5.8 mph - N/A   Clear
4:53 PM 51.8 °F - 39.2 °F 62% 30.04 in 10.0 mi North 4.6 mph - N/A   Clear
5:13 PM 50.0 °F - 37.4 °F 62% 30.05 in 10.0 mi NNE 5.8 mph - N/A   Clear
5:33 PM 48.2 °F - 37.4 °F 66% 30.05 in 10.0 mi NNE 4.6 mph - N/A   Clear
5:53 PM 46.4 °F 42.4 °F 37.4 °F 71% 30.06 in 10.0 mi NNE 8.1 mph - N/A   Clear
6:13 PM 46.4 °F 42.4 °F 37.4 °F 71% 30.07 in 10.0 mi NNE 8.1 mph - N/A   Clear
6:33 PM 44.6 °F 40.7 °F 35.6 °F 71% 30.08 in 10.0 mi North 6.9 mph - N/A   Clear
6:53 PM 44.6 °F 41.4 °F 35.6 °F 71% 30.09 in 10.0 mi North 5.8 mph - N/A   Clear
7:13 PM 46.4 °F 42.4 °F 35.6 °F 66% 30.09 in 10.0 mi North 8.1 mph - N/A   Scattered Clouds
7:33 PM 44.6 °F 40.7 °F 35.6 °F 71% 30.09 in 10.0 mi North 6.9 mph - N/A   Scattered Clouds
7:53 PM 42.8 °F 39.3 °F 35.6 °F 76% 30.09 in 10.0 mi North 5.8 mph - N/A   Clear
8:13 PM 42.8 °F 40.1 °F 35.6 °F 76% 30.10 in 10.0 mi NNE 4.6 mph - N/A   Clear
8:34 PM 41.0 °F 35.8 °F 33.8 °F 76% 30.10 in 10.0 mi NNE 8.1 mph - N/A   Clear
9:13 PM 39.2 °F 35.0 °F 33.8 °F 81% 30.10 in 10.0 mi North 5.8 mph - N/A   Clear
9:34 PM 39.2 °F 34.2 °F 33.8 °F 81% 30.10 in 10.0 mi NNE 6.9 mph - N/A   Clear
9:53 PM 39.2 °F 34.2 °F 33.8 °F 81% 30.11 in 10.0 mi NNE 6.9 mph - N/A   Clear
10:13 PM 37.4 °F 32.8 °F 33.8 °F 87% 30.11 in 10.0 mi North 5.8 mph - N/A   Clear
10:34 PM 37.4 °F 33.8 °F 33.8 °F 87% 30.12 in 10.0 mi North 4.6 mph - N/A   Scattered Clouds
10:53 PM 37.4 °F 33.8 °F 32.0 °F 81% 30.12 in 10.0 mi North 4.6 mph - N/A   Scattered Clouds
11:13 PM 37.4 °F 34.9 °F 32.0 °F 81% 30.12 in 10.0 mi North 3.5 mph - N/A   Scattered Clouds
11:34 PM 35.6 °F - 32.0 °F 87% 30.12 in 10.0 mi Calm Calm - N/A   Clear
11:53 PM 30.2 °F - 28.4 °F 93% 30.12 in 10.0 mi Calm Calm - N/A   Clear